Location: East Fork Observatory
(32.9757°N, 94.4485°W)
Time: 19:52:31
(UTC-06:00)

Hubble Space Telescope - Pass Details

Date: 26 October 2019
Orbit: 536 x 540 km, 28.5° (Epoch: 17 November)

Event Time Altitude Azimuth Distance (km) Brightness Sun altitude
Exits shadow 06:32:03 - 215° (SW) 2,675 4.0 -12.9°
Rises 06:32:06 0° 215° (SW) 2,662 4.0 -12.9°
Reaches altitude 10° 06:35:14 10° 190° (S) 1,774 3.4 -12.2°
Maximum altitude 06:37:26 14° 157° (SSE) 1,528 3.5 -11.8°
Drops below altitude 10° 06:39:39 10° 124° (SE) 1,776 4.5 -11.3°
Sets 06:42:48 0° 99° (E) 2,668 6.6 -10.7°
